Time,TemperatureF,DewpointF,PressureIn,WindDirection,WindDirectionDegrees,WindSpeedMPH,WindSpeedGustMPH,Humidity,HourlyPrecipIn,Conditions,Clouds,dailyrainin,SoftwareType,DateUTC
2013-01-13 07:43:00,4.0,4.0,-100.00,WNW,285,2.0,4.0,97,0.00,,,-99.99,,2013-01-13 14:43:00,
2013-01-13 07:53:00,4.0,4.0,-100.00,SSW,210,0.0,2.0,97,0.00,,,-99.99,,2013-01-13 14:53:00,
2013-01-13 08:03:00,5.0,4.0,-100.00,South,175,1.0,2.0,97,0.00,,,-99.99,,2013-01-13 15:03:00,
2013-01-13 08:12:00,5.0,4.0,-100.00,South,175,1.0,2.0,97,0.00,,,-99.99,,2013-01-13 15:12:00,
2013-01-13 08:22:00,5.0,5.0,-100.00,SW,225,2.0,4.0,97,0.00,,,-99.99,,2013-01-13 15:22:00,
2013-01-13 08:33:00,6.0,5.0,-100.00,SW,230,2.0,4.0,97,0.00,,,-99.99,,2013-01-13 15:33:00,
2013-01-13 08:43:00,7.0,6.0,-100.00,WSW,245,2.0,4.0,96,0.00,,,-99.99,,2013-01-13 15:43:00,
2013-01-13 08:52:00,7.0,6.0,-100.00,WSW,245,2.0,4.0,96,0.00,,,-99.99,,2013-01-13 15:52:00,
2013-01-13 09:03:00,7.0,6.0,-100.00,SSW,195,1.0,2.0,95,0.00,,,-99.99,,2013-01-13 16:03:00,
2013-01-13 09:12:00,7.0,6.0,-100.00,SSW,195,1.0,2.0,95,0.00,,,-99.99,,2013-01-13 16:12:00,
2013-01-13 09:22:00,8.0,7.0,-100.00,SW,225,2.0,4.0,92,0.00,,,-99.99,,2013-01-13 16:22:00,
2013-01-13 09:33:00,8.0,7.0,-100.00,SW,225,2.0,4.0,92,0.00,,,-99.99,,2013-01-13 16:33:00,
2013-01-13 09:43:00,9.0,8.0,-100.00,WNW,295,1.0,3.0,92,0.00,,,-99.99,,2013-01-13 16:43:00,
2013-01-13 09:52:00,8.0,6.0,-100.00,SW,225,2.0,6.0,91,0.00,,,-99.99,,2013-01-13 16:52:00,
2013-01-13 10:03:00,11.0,8.0,-100.00,SW,220,2.0,6.0,88,0.00,,,-99.99,,2013-01-13 17:03:00,
2013-01-13 10:12:00,11.0,8.0,-100.00,SW,220,2.0,6.0,88,0.00,,,-99.99,,2013-01-13 17:12:00,
2013-01-13 10:22:00,11.0,7.0,-100.00,SW,215,2.0,4.0,86,0.00,,,-99.99,,2013-01-13 17:22:00,
2013-01-13 10:33:00,11.0,7.0,-100.00,SW,215,2.0,4.0,86,0.00,,,-99.99,,2013-01-13 17:33:00,
2013-01-13 10:42:00,11.0,8.0,-100.00,SSW,195,2.0,7.0,86,0.00,,,-99.99,,2013-01-13 17:42:00,
2013-01-13 10:53:00,12.0,8.0,-100.00,South,170,4.0,6.0,85,0.00,,,-99.99,,2013-01-13 17:53:00,
2013-01-13 11:03:00,12.0,8.0,-100.00,South,170,4.0,6.0,85,0.00,,,-99.99,,2013-01-13 18:03:00,
2013-01-13 11:12:00,13.0,9.0,-100.00,South,180,2.0,7.0,83,0.00,,,-99.99,,2013-01-13 18:12:00,
2013-01-13 11:22:00,13.0,9.0,-100.00,South,180,2.0,7.0,83,0.00,,,-99.99,,2013-01-13 18:22:00,
2013-01-13 11:32:00,14.0,10.0,-100.00,South,180,3.0,5.0,80,0.00,,,-99.99,,2013-01-13 18:32:00,
2013-01-13 11:42:00,15.0,9.0,-100.00,SE,135,2.0,6.0,78,0.00,,,-99.99,,2013-01-13 18:42:00,
2013-01-13 11:53:00,15.0,9.0,-100.00,SE,135,2.0,6.0,78,0.00,,,-99.99,,2013-01-13 18:53:00,
2013-01-13 12:02:00,15.0,9.0,-100.00,WSW,245,3.0,7.0,76,0.00,,,-99.99,,2013-01-13 19:02:00,
2013-01-13 12:12:00,15.0,9.0,-100.00,WSW,245,3.0,7.0,76,0.00,,,-99.99,,2013-01-13 19:12:00,
2013-01-13 12:22:00,16.0,10.0,-100.00,West,265,3.0,9.0,77,0.00,,,-99.99,,2013-01-13 19:22:00,
2013-01-13 12:33:00,15.0,10.0,-100.00,SSE,160,2.0,7.0,77,0.00,,,-99.99,,2013-01-13 19:33:00,
2013-01-13 12:43:00,15.0,9.0,-100.00,SSW,200,4.0,9.0,77,0.00,,,-99.99,,2013-01-13 19:43:00,
2013-01-13 12:52:00,15.0,9.0,-100.00,West,280,5.0,9.0,76,0.00,,,-99.99,,2013-01-13 19:52:00,
2013-01-13 13:03:00,15.0,9.0,-100.00,South,185,1.0,5.0,75,0.00,,,-99.99,,2013-01-13 20:03:00,
2013-01-13 13:12:00,16.0,9.0,-100.00,West,265,6.0,9.0,75,0.00,,,-99.99,,2013-01-13 20:12:00,
2013-01-13 13:22:00,15.0,9.0,-100.00,SW,230,4.0,10.0,75,0.00,,,-99.99,,2013-01-13 20:22:00,
2013-01-13 13:33:00,13.0,8.0,-100.00,South,190,7.0,11.0,78,0.00,,,-99.99,,2013-01-13 20:33:00,
2013-01-13 13:43:00,13.0,8.0,-100.00,South,190,7.0,11.0,78,0.00,,,-99.99,,2013-01-13 20:43:00,
2013-01-13 13:53:00,13.0,8.0,-100.00,South,170,7.0,10.0,79,0.00,,,-99.99,,2013-01-13 20:53:00,
2013-01-13 14:03:00,13.0,8.0,-100.00,SSW,210,6.0,10.0,79,0.00,,,-99.99,,2013-01-13 21:03:00,
2013-01-13 14:12:00,13.0,8.0,-100.00,SSW,210,6.0,10.0,79,0.00,,,-99.99,,2013-01-13 21:12:00,
2013-01-13 14:23:00,13.0,8.0,-100.00,WSW,245,6.0,9.0,79,0.00,,,-99.99,,2013-01-13 21:23:00,
2013-01-13 14:33:00,12.0,7.0,-100.00,South,175,5.0,9.0,78,0.00,,,-99.99,,2013-01-13 21:33:00,
2013-01-13 14:43:00,12.0,7.0,-100.00,South,175,5.0,9.0,78,0.00,,,-99.99,,2013-01-13 21:43:00,
2013-01-13 14:52:00,12.0,7.0,-100.00,South,175,6.0,9.0,79,0.00,,,-99.99,,2013-01-13 21:52:00,
2013-01-13 15:02:00,12.0,7.0,-100.00,South,170,5.0,9.0,81,0.00,,,-99.99,,2013-01-13 22:02:00,
2013-01-13 15:12:00,12.0,8.0,-100.00,SW,220,6.0,7.0,84,0.00,,,-99.99,,2013-01-13 22:12:00,
2013-01-13 15:22:00,12.0,8.0,-100.00,SSW,195,4.0,9.0,84,0.00,,,-99.99,,2013-01-13 22:22:00,
2013-01-13 15:33:00,12.0,8.0,-100.00,SSW,195,4.0,9.0,84,0.00,,,-99.99,,2013-01-13 22:33:00,
2013-01-13 15:43:00,11.0,8.0,-100.00,SSW,210,6.0,7.0,84,0.00,,,-99.99,,2013-01-13 22:43:00,
2013-01-13 15:52:00,11.0,8.0,-100.00,SSW,210,4.0,7.0,84,0.00,,,-99.99,,2013-01-13 22:52:00,
2013-01-13 16:02:00,11.0,8.0,-100.00,SW,235,4.0,7.0,84,0.00,,,-99.99,,2013-01-13 23:02:00,
2013-01-13 16:12:00,11.0,8.0,-100.00,SSW,200,3.0,5.0,85,0.00,,,-99.99,,2013-01-13 23:12:00,
2013-01-13 16:22:00,11.0,8.0,-100.00,WSW,255,2.0,4.0,85,0.00,,,-99.99,,2013-01-13 23:22:00,
2013-01-13 16:33:00,11.0,8.0,-100.00,SSW,200,4.0,6.0,85,0.00,,,-99.99,,2013-01-13 23:33:00,
2013-01-13 16:42:00,11.0,8.0,-100.00,SSW,200,4.0,6.0,85,0.00,,,-99.99,,2013-01-13 23:42:00,
2013-01-13 16:52:00,11.0,8.0,-100.00,WSW,245,3.0,5.0,86,0.00,,,-99.99,,2013-01-13 23:52:00,
2013-01-13 17:02:00,11.0,8.0,-100.00,WSW,245,3.0,5.0,86,0.00,,,-99.99,,2013-01-14 00:02:00,
2013-01-13 17:10:00,11.0,8.0,-100.00,SSW,195,4.0,6.0,86,0.00,,,-99.99,,2013-01-14 00:10:00,
2013-01-13 17:12:00,11.0,8.0,-100.00,SSW,205,3.0,6.0,87,0.00,,,-99.99,,2013-01-14 00:12:00,
2013-01-13 17:22:00,11.0,8.0,-100.00,SSW,195,4.0,6.0,86,0.00,,,-99.99,,2013-01-14 00:22:00,
2013-01-13 17:33:00,11.0,8.0,-100.00,SSW,195,4.0,6.0,86,0.00,,,-99.99,,2013-01-14 00:33:00,
2013-01-13 17:43:00,11.0,8.0,-100.00,SSW,195,4.0,6.0,86,0.00,,,-99.99,,2013-01-14 00:43:00,
2013-01-13 17:52:00,11.0,8.0,-100.00,SSW,195,4.0,6.0,86,0.00,,,-99.99,,2013-01-14 00:52:00,
2013-01-13 18:03:00,11.0,8.0,-100.00,SSW,195,4.0,6.0,86,0.00,,,-99.99,,2013-01-14 01:03:00,